Regional Weather Roundup
Issued by NWS San Angelo, TX

Home | Current Version | Previous Version | Text Only | Print | Product List | Glossary On
Versions: 1 2 3 4 5 6 7 8 9 10 11 12 13 14 15 16 17 18 19 20 21 22 23 24 25 26 27 28 29 30 31 32 33 34 35 36 37 38 39 40 41 42 43 44 45 46 47 48 49 50
000
ASUS44 KSJT 291210
RWRSJT
WEST CENTRAL TEXAS REGIONAL WEATHER ROUNDUP
NATIONAL WEATHER SERVICE SAN ANGELO TX
700 AM CDT SAT JUL 29 2017

NOTE: "FAIR" INDICATES FEW OR NO CLOUDS BELOW 12,000 FEET WITH NO
SIGNIFICANT WEATHER AND/OR OBSTRUCTIONS TO VISIBILITY.

TXZ049-054-064>066-071>073-076>078-098-099-113-114-127-128-139-140-
154-155-168>170-291300
...LOCATIONS ACROSS WEST CENTRAL TEXAS...

CITY           SKY/WX    TMP DP  RH WIND       PRES   REMARKS
SAN ANGELO     CLEAR     70  57  63 SW3       29.97R
ABILENE        CLEAR     77  57  50 SW5       29.95R
DYESS AFB      CLEAR     78  57  48 S3        29.94R
JUNCTION       CLEAR     76  65  68 CALM      29.98R
SWEETWATER     CLEAR     78  54  42 SW10      30.01S
BROWNWOOD      PTCLDY    68  63  83 CALM      29.96R
COLEMAN        SUNNY     72  59  63 CALM      29.97R
SONORA         CLEAR     75  66  73 CALM      30.03R
OZONA          FAIR      73  61  64 S7        30.02R
BRADY          NOT AVBL
$$

TEXAS PANHANDLE/OKLAHOMA PANHANDLE

CITY           SKY/WX    TMP DP  RH WIND       PRES   REMARKS
AMARILLO       MOCLDY    72  68  87 N7        30.11R
BORGER         CLOUDY    75  69  81 N5        30.10R
CANADIAN       CLOUDY    72  71  95 CALM      30.04R
DALHART        CLOUDY    69  65  86 N15       30.16S
DUMAS          CLOUDY    66  64  93 N9        30.15S
GUYMON         NOT AVBL
HEREFORD       CLOUDY    71  69  92 N5        30.12R
PAMPA          PTSUNNY   72  68  88 CALM      30.10R
PERRYTON       CLOUDY    73  67  82 N17       30.10R
$$

SOUTHERN PANHANDLE/SOUTH PLAINS/ROLLING PLAINS

CITY           SKY/WX    TMP DP  RH WIND       PRES   REMARKS
LUBBOCK        PTCLDY    73  56  54 W6        30.04R
SNYDER         CLEAR     74  57  54 S3        30.00R
CHILDRESS      PTCLDY    79  71  76 E9        29.99R
SEMINOLE       SUNNY     70  55  60 SW5       30.05R
$$

PERMIAN BASIN

CITY           SKY/WX    TMP DP  RH WIND       PRES   REMARKS
MIDLAND        CLEAR     72  57  59 SW3       30.01R
ODESSA         CLEAR     76  55  48 S7        30.03R
WINK           CLEAR     73  56  54 E7        29.98R
$$

FAR WEST/SOUTHWEST MOUNTAINS/TRANS PECOS

CITY           SKY/WX    TMP DP  RH WIND       PRES   REMARKS
ALPINE         SUNNY     70  60  71 SW7       30.17R
DRYDEN           N/A     73  58  59 NE3       29.96R
EL PASO        CLOUDY    75  63  66 S21G28    30.09R
FORT STOCKTON  CLEAR     75  58  55 SE9       30.00R
GUADALUPE PASS CLOUDY    70  57  63 SW20      30.19R
MARFA          CLEAR     64  59  83 W7        30.16R
PECOS          SUNNY     71  53  53 CALM      29.98R
$$

DALLAS/FORT WORTH METROPLEX

CITY           SKY/WX    TMP DP  RH WIND       PRES   REMARKS
DFW AIRPORT    MOCLDY    82  66  58 S7        29.88R
FTW MEACHAM    PTCLDY    78  68  71 CALM      29.89R
DAL-EXECUTIVE  CLOUDY    79  66  64 SW3       29.89R
GRAND PRAIRIE  CLEAR     81  63  54 SE3       29.90S
ADDISON        CLEAR     81  73  78 NE8       29.90R
MESQUITE       MOSUNNY   77  68  73 CALM      29.90R
LANCASTER      CLOUDY    77  67  71 CALM      29.91R
$$

NORTH CENTRAL TEXAS

CITY           SKY/WX    TMP DP  RH WIND       PRES   REMARKS
SHRMAN/DENISON CLOUDY    77  74  90 E6        29.93S
GAINESVILLE    MOCLDY    77  73  87 NE5       29.95R
BRIDGEPORT     MOSUNNY   75  73  91 E3        29.93R
DENTON         CLOUDY    78  75  90 NE7       29.91R
WAXAHACHIE     CLOUDY    79  65  64 CALM      29.92R
GRANBURY       CLOUDY    79  64  60 CALM      29.91R
$$

WESTERN NORTH TEXAS

CITY           SKY/WX    TMP DP  RH WIND       PRES   REMARKS
WICHITA FALLS  CLOUDY    78  73  84 E9        29.93R
VERNON         CLOUDY    81  69  68 E9        29.95R
BRECKENRIDGE   PTSUNNY   79  60  51 S6        29.92R
COMANCHE       MOCLDY    79  62  55 SW9       29.94R
$$

CENTRAL AND SOUTH CENTRAL TEXAS

CITY           SKY/WX    TMP DP  RH WIND       PRES   REMARKS
AUSTIN/BERGSTM PTCLDY    75  72  90 S3        29.93R
WACO           MOCLDY    79  68  69 S10       29.90R
HILLSBORO      PTSUNNY   79  67  67 S5        29.90S
TEMPLE         CLEAR     76  68  76 S7        29.93R
KILLEEN-GRAY   CLEAR     77  65  66 S7        29.92R
FORT HOOD      CLEAR     76  65  68 SW3       29.90R
GEORGETOWN     CLEAR     77  68  73 SW5       29.95R
LAGO VISTA     FAIR      78  70  76 SW7       29.97R
SAN MARCOS     CLEAR     73  64  73 SW3       29.96R
NEW BRAUNFELS  CLEAR     72  70  93 CALM      29.93R
RANDOLPH AFB   CLEAR     76  76 100 SW5       29.94R
SAN ANTONIO    PTCLDY    77  71  82 CALM      29.95R
STINSON        CLEAR     75  71  87 CALM      29.92R
PLEASANTON     NOT AVBL
LA GRANGE      CLOUDY    79  78  95 CALM      29.92R
GIDDINGS       SUNNY     76  73  92 SW6       29.94R
$$

EAST TEXAS

CITY           SKY/WX    TMP DP  RH WIND       PRES   REMARKS
PARIS          CLOUDY    77  76  96 NE3       29.91S
CLARKSVILLE    NOT AVBL
TYLER          CLOUDY    82  70  66 W6        29.91R
LONGVIEW       CLOUDY    82  75  79 W3        29.90R
PALESTINE      CLOUDY    77  73  88 S3        29.91S
NACOGDOCHES    CLOUDY    79  73  83 W3        29.88R
$$

TEXAS HILL COUNTRY AND EDWARDS PLATEAU

CITY           SKY/WX    TMP DP  RH WIND       PRES   REMARKS
LLANO          SUNNY     72  64  78 CALM      29.98S
HORSESHOE BAY  FAIR      77  67  72 CALM      29.95R
KERRVILLE      CLEAR     73  70  90 CALM      29.98R
FREDERICKSBRG  CLEAR     73  66  80 CALM      29.99R
ROCKSPRINGS    NOT AVBL
HONDO          PTCLDY    72  69  90 NE3       29.94R
UVALDE         SUNNY     72  69  90 CALM      29.94R
DEL RIO        CLEAR     77  69  76 E8        29.91R
$$

SOUTHEAST TEXAS

CITY           SKY/WX    TMP DP  RH WIND       PRES   REMARKS
COLLEGE STN    CLEAR     78  76  93 SW7       29.92R
CALDWELL       NOT AVBL
CROCKETT       CLOUDY    77  73  88 CALM      29.94R
BRENHAM        CLEAR     79  77  94 SW5       29.93R
HUNTSVILLE     CLOUDY    79  74  84 SW7       29.92R
CONROE         PTCLDY    78  76  93 W8        29.92R
HOUSTON BUSH   MOCLDY    80  75  84 SW7       29.91S
HOUSTON HOBBY  PTCLDY    81  76  84 SW6       29.91R
PERLAND        CLEAR     80  75  84 CALM      29.93R
WHARTON        SUNNY     76  73  90 SW3       29.93R
$$

THE UPPER TEXAS COAST

CITY           SKY/WX    TMP DP  RH WIND       PRES   REMARKS
ORANGE         MOSUNNY   80  79  96 W3        29.92S
PORT ARTHUR    CLEAR     77  76  96 SW3       29.90S
GALVESTON      PTCLDY    83  79  88 W6        29.92R
ANGLETON       PTCLDY    78  77  96 CALM      29.92R
BAY CITY       SUNNY     78  77  99 CALM      29.92R
$$

TEXAS COASTAL BEND, RIO GRANDE PLAINS DEEP SOUTH TEXAS

CITY           SKY/WX    TMP DP  RH WIND       PRES   REMARKS
VICTORIA       PTCLDY    79  75  87 S5        29.92R
BEEVILLE       FAIR     N/A N/A N/A S5        29.91R
ROCKPORT       CLEAR     79  76  90 SW3       29.89S
PORT ARANSAS   SUNNY     81  76  86 SW8       29.90R
PORT LAVACA    MOSUNNY   77  75  94 SW3       29.92R
CORPUS CHRISTI PTCLDY    74  74 100 SE5       29.90S
KINGSVILLE NAS PTCLDY    75  75 100 SE5       29.90R
COTULLA        CLEAR     75  71  87 S5        29.90R
LAREDO         CLEAR     78  72  81 SE7       29.90R
BROWNSVILLE    PTCLDY    76  76 100 S6        29.89S
PORT ISABEL    CLEAR     79  77  94 S6        29.88S
HEBBRONVILLE   MOSUNNY   73  71  95 CALM      29.91S FOG
MCALLEN        CLEAR     79  75  87 SE8       29.89R
WESLACO        CLEAR     78  75  91 S7        29.88S
FALFURRIAS     MOSUNNY   74  73  97 CALM      29.90R
EDINBURG       SUNNY     79  75  88 CALM      29.89S
$$




USA.gov is the U.S. government's official web portal to all federal, state and local government web resources and services.